Regional Weather Roundup
Issued by NWS

Home | Current Version | Previous Version | Text Only | Print | Product List | Glossary Off
Versions: 1 2 3 4 5 6 7 8 9 10 11 12 13 14 15 16 17 18 19 20 21 22 23 24 25 26 27 28 29 30 31 32 33 34 35 36 37 38 39 40 41 42 43 44 45 46 47 48 49 50

000
ASUS43 KDMX 262207
RWRIA

WEATHER ROUNDUP FOR IOWA
NATIONAL WEATHER SERVICE DES MOINES IA
400 PM CST WED NOV 26 2014

NOTE: "FAIR" INDICATES FEW OR NO CLOUDS BELOW 12,000 FEET WITH NO
SIGNIFICANT WEATHER AND/OR OBSTRUCTIONS TO VISIBILITY.

* - THESE STATIONS ARE NOT NWS STATIONS...THUS NOT UNDER NWS
QUALITY CONTROL.  THEY ALSO DO NOT REPORT WEATHER SUCH
AS PRECIPITATION OR FOG.

IAZ001>003-012>014-020>022-031>034-043>046-262300-
   NORTHWEST IOWA

CITY           SKY/WX    TMP DP  RH WIND       PRES   REMARKS
CARROLL *      LGT RAIN  25  23  93 N22       30.19R WCI  10
CHEROKEE *     CLOUDY    23  19  86 N18G24    30.26R WCI   9
DENISON *      CLOUDY    25  21  86 N18G25    30.21R WCI  11
LE MARS *      CLOUDY    23  19  86 NW17G24   30.30R WCI   9
ORANGE CITY *  CLOUDY    21  16  79 NW18G26   30.28R WCI   6
SHELDON *      CLOUDY    19  16  86 N21       30.27R WCI   3
SIOUX CITY     CLOUDY    24  18  77 NW20G30   30.29R WCI  10
SPENCER        CLOUDY    21  16  81 N20       30.25R WCI   6
STORM LAKE *   CLOUDY    21  18  86 N22G30    30.23R WCI   5
$$

IAZ055>058-069>071-079>083-090>094-262300-
   SOUTHWEST IOWA

CITY           SKY/WX    TMP DP  RH WIND       PRES   REMARKS
ATLANTIC *     CLOUDY    27  23  86 N22G38    30.17R WCI  12
AUDUBON *      CLEAR     27  19  74 N20G29    30.17R WCI  13
CLARINDA *     CLOUDY    30  25  80 N24G35    30.18R WCI  16
COUNCIL BLFS * CLOUDY    27  25  93 N20G29    30.20R WCI  13
CRESTON *      CLOUDY    28  27  93 N23G30    30.10R WCI  14
HARLAN  *      CLOUDY    27  25  93 N18G28    30.23R WCI  13
LAMONI         CLOUDY    30  27  88 N17G26    30.07R WCI  18
RED OAK *      CLOUDY    28  23  80 N20G29    30.19R WCI  15
SHENANDOAH *   CLOUDY    30  25  80 N22G29    30.20R WCI  17
$$

IAZ047>049-059>061-072>074-084-262300-
   CENTRAL IOWA

CITY           SKY/WX    TMP DP  RH WIND       PRES   REMARKS
AMES           CLOUDY    30  26  85 N18       30.13R FOG     WCI  18
ANKENY *       CLOUDY    30  28  93 N13       30.11R WCI  20
CHARITON *     CLOUDY    30  28  93 N14       30.06R FOG     WCI  20
DES MOINES     LGT SNOW  32  27  81 N10       30.11R WCI  24
GRINNELL*      LGT SNOW  30  28  93 N10G17    30.09R WCI  21
KNOXVILLE *    CLOUDY    30  27  86 NE9       30.07R FOG     WCI  22
MARSHALLTOWN   LGT SNOW  30  27  88 N16       30.11R FOG     WCI  19
PELLA *        LGT SNOW  32  28  86 NE8       30.09R WCI  25
PERRY *        LGT SNOW  30  28  93 N15G21    30.15R WCI  19
$$

IAZ004>006-015-016-023>025-035-036-262300-
   NORTH CENTRAL IOWA

CITY           SKY/WX    TMP DP  RH WIND       PRES   REMARKS
ALGONA *       MIX PCPN  25  23  93 N17       30.20R WCI  11
CLARION *      SNOW      27  27 100 NE17      30.17R VSB 1/2 WCI  14
ESTHERVILLE    MIX PCPN  18  15  88 N20       30.23R FOG     WCI   2
FORT DODGE *   CLOUDY    25  21  86 N9G20     30.19R VSB 3/4 WCI  15
MASON CITY     SNOW      25  23  92 N9        30.18R VSB 1/2 WCI  15
FOREST CITY *  LGT SNOW  27  27 100 N8        30.18R VSB 1   WCI  18
IOWA FALLS *   LGT SNOW  28  27  93 N15       30.15R WCI  17
$$

IAZ007>011-017>019-026>030-037>042-050>054-066-262300-
   NORTHEAST IOWA

CITY           SKY/WX    TMP DP  RH WIND       PRES   REMARKS
CEDAR RAPIDS   LGT SNOW  29  25  85 NE13      30.09R FOG     WCI  19
CHARLES CITY * SNOW      27  25  93 N12       30.17R VSB 1/2 WCI  16
CLINTON *      CLOUDY    28  21  74 E9        30.13R WCI  20
DECORAH *      LGT SNOW  27  21  80 N9        30.15R WCI  17
DUBUQUE        CLOUDY    26  23  88 NE10      30.12R FOG     WCI  16
MONTICELLO *   CLOUDY    28  25  86 NE7       30.11R WCI  21
OELWEIN *      MIX PCPN  28  25  86 NE14      30.14R WCI  17
WATERLOO       LGT SNOW  29  27  92 N14       30.14R FOG     WCI  18
$$

IAZ064-065-067-068-078-262300-
   EAST CENTRAL IOWA

CITY           SKY/WX    TMP DP  RH WIND       PRES   REMARKS
DAVENPORT      CLOUDY    28  22  78 E13       30.10R WCI  17
IOWA CITY      CLOUDY    29  25  85 NE10      30.11R WCI  20
MT. PLEASANT * LGT SNOW  30  30 100 E9        30.06R VSB 3/4 WCI  22
MUSCATINE *    MOCLDY    32  27  80 E10G18    30.09R WCI  24
QUAD CITIES    CLOUDY    29  24  82 E12       30.09R WCI  19
$$

IAZ062-063-075>077-085>089-095>099-262300-
   SOUTHEAST IOWA

CITY           SKY/WX    TMP DP  RH WIND       PRES   REMARKS
BURLINGTON     SNOW      31  29  92 E12       30.04R VSB 1/2 WCI  22
FAIRFIELD *    MIX PCPN  30  28  93 E15       30.05R WCI  19
FORT MADISON * LGT SNOW  34  30  86 E8        30.04R WCI  27
KEOKUK *       CLOUDY    32  30  93 E9G17     30.02R WCI  24
OSKALOOSA *    LGT SNOW  30  28  93 NE10      30.07R WCI  21
CENTERVILLE *  LGT RAIN  32  32 100 N6        30.04R WCI  26
OTTUMWA        LGT SNOW  31  28  89 NE9       30.05R FOG     WCI  23
WASHINGTON *   SNOW      30  30 100 NE13G21   30.06R VSB 1/2 WCI  20
$$

ABBREVIATIONS USED IN REMARKS
   TC - TEMPERATURES IN CELSIUS
  WCI - WIND CHILL INDEX
   HX - HEAT INDEX
  VSB - VISIBILITY
$$



USA.gov is the U.S. government's official web portal to all federal, state and local government web resources and services.